Weather History for KGRF - March, 2014

Change the Weather History Date:

Monday, March 3, 2014

  Actual Average Record
Temperature  
Mean Temperature 49 °F -  
Max Temperature 53 °F 49 °F 59 °F (2002)
Min Temperature 45 °F 33 °F 24 °F (2006)
Degree Days  
Heating Degree Days 16    
Moisture  
Dew Point 48 °F    
Average Humidity 96    
Maximum Humidity 100    
Minimum Humidity 75    
Precipitation  
Precipitation 0.53 in - - ()
Sea Level Pressure  
Sea Level Pressure 29.75 in    
Wind  
Wind Speed 8 mph (South)    
Max Wind Speed 16 mph    
Max Gust Speed 23 mph    
Visibility 8 miles    
Events Rain    
Averages and records for this station are not official NWS values.
T = Trace of Precipitation, MM = Missing Value Source: NWS Daily Summary

Daily Weather History Graph

Daily Weather History Graph

Search for Another Location

Airport or City:

Trip Planner

Search our weather history database for the weather conditions in past years. The results will help you decide how hot, cold, wet, or windy it might be!

Date:

Astronomy

Mar. 03, 2014 Rise Set
Actual Time 6:46 AM PST 5:58 PM PST
Civil Twilight 6:15 AM PST 6:29 PM PST
Nautical Twilight 5:40 AM PST 7:04 PM PST
Astronomical Twilight 5:05 AM PST 7:40 PM PST
Moon 7:45 AM PST (3/3) 9:22 PM PST (3/3)
Length of Visible Light 12h 13m
Length of Day
11h 12m
Waxing Crescent, 8% of the Moon is Illuminated
Mar 3
Waxing Crescent
Mar 8
First Quarter
Mar 16
Full
Mar 23
Last Quarter
Mar 30
New

Hourly Weather History & Observations

Time (PST) Temp. Windchill Dew Point Humidity Pressure Visibility Wind Dir Wind Speed Gust Speed Precip Events Conditions
12:03 AM 46.4 °F 42.9 °F 46.4 °F 100% 29.76 in 10.0 mi South 6.9 mph - N/A   Drizzle
12:48 AM 46.4 °F 41.5 °F 46.4 °F 100% 29.77 in 10.0 mi SSE 10.4 mph 19.6 mph N/A   Drizzle
12:58 AM 46.6 °F - 46.2 °F 99% 29.79 in 9.0 mi SSE 9.2 mph - 0.00 in   Drizzle
1:03 AM 46.4 °F 41.9 °F 46.4 °F 100% 29.77 in 7.0 mi SSE 9.2 mph - N/A Rain Light Rain
1:08 AM 46.4 °F 41.5 °F 46.4 °F 100% 29.77 in 7.0 mi SSE 10.4 mph - N/A Rain Light Rain
1:33 AM 46.4 °F 42.4 °F 46.4 °F 100% 29.77 in 10.0 mi SSE 8.1 mph - N/A   Drizzle
1:38 AM 46.4 °F 41.9 °F 46.4 °F 100% 29.77 in 10.0 mi SSE 9.2 mph - N/A Rain Light Rain
1:58 AM 46.8 °F - 46.6 °F 99% 29.79 in 10.0 mi SSE 8.1 mph - 0.04 in   Drizzle
2:13 AM 46.4 °F 43.5 °F 46.4 °F 100% 29.76 in 10.0 mi SSE 5.8 mph - N/A   Drizzle
2:58 AM 45.9 °F 41.7 °F 45.7 °F 99% 29.77 in 10.0 mi SSE 8.1 mph - 0.00 in   Drizzle
3:08 AM 46.4 °F 42.9 °F 46.4 °F 100% 29.75 in 10.0 mi SSE 6.9 mph - N/A   Drizzle
3:58 AM 47.3 °F - 46.9 °F 99% 29.75 in 10.0 mi South 4.6 mph - 0.00 in   Drizzle
4:03 AM 46.4 °F 44.3 °F 46.4 °F 100% 29.73 in 10.0 mi SSE 4.6 mph - N/A   Drizzle
4:18 AM 46.4 °F 43.5 °F 46.4 °F 100% 29.73 in 10.0 mi South 5.8 mph - N/A   Drizzle
4:53 AM 48.2 °F - 48.2 °F 100% 29.71 in 10.0 mi South 5.8 mph - N/A   Drizzle
4:58 AM 47.8 °F - 47.7 °F 99% 29.73 in 10.0 mi South 5.8 mph - 0.00 in   Drizzle
5:58 AM 48.2 °F - 47.8 °F 99% 29.70 in 10.0 mi SSE 6.9 mph - 0.02 in Rain Light Rain
6:58 AM 47.1 °F - 46.8 °F 99% 29.70 in 6.0 mi SE 5.8 mph - 0.09 in Rain Light Rain
7:58 AM 46.6 °F - 46.4 °F 99% 29.69 in 6.0 mi ENE 4.6 mph - 0.09 in   Heavy Drizzle
8:23 AM 46.4 °F 45.2 °F 46.4 °F 100% 29.66 in 9.0 mi East 3.5 mph - N/A   Drizzle
8:58 AM 46.2 °F - 46.0 °F 99% 29.68 in 8.0 mi Variable 2.3 mph - 0.04 in   Drizzle
9:09 AM 46.4 °F 44.3 °F 46.4 °F 100% 29.66 in 5.0 mi ESE 4.6 mph - N/A   Drizzle
9:29 AM 46.4 °F 44.3 °F 46.4 °F 100% 29.67 in 4.0 mi SE 4.6 mph - N/A Rain Light Rain
9:58 AM 47.1 °F - 46.8 °F 99% 29.69 in 3.0 mi SE 6.9 mph - 0.07 in Rain Light Rain
10:08 AM 48.2 °F - 48.2 °F 100% 29.68 in 5.0 mi SSE 6.9 mph - N/A   Drizzle
10:28 AM 50.0 °F - 50.0 °F 100% 29.68 in 10.0 mi South 11.5 mph - N/A   Drizzle
10:29 AM 50.0 °F - 50.0 °F 100% 29.68 in 10.0 mi South 11.5 mph - N/A   Drizzle
10:34 AM 50.0 °F - 50.0 °F 100% 29.68 in 10.0 mi South 12.7 mph - N/A   Drizzle
10:45 AM 51.8 °F - 50.0 °F 94% 29.68 in 7.0 mi South 8.1 mph - N/A   Drizzle
10:50 AM 51.8 °F - 50.0 °F 94% 29.68 in 6.0 mi South 6.9 mph - N/A   Drizzle
10:55 AM 51.8 °F - 50.0 °F 94% 29.68 in 5.0 mi South 8.1 mph - N/A Rain Light Rain
10:58 AM 51.1 °F - 50.7 °F 99% 29.70 in 5.0 mi South 8.1 mph - 0.02 in Rain Light Rain
11:03 AM 51.8 °F - 51.8 °F 100% 29.68 in 7.0 mi South 9.2 mph - N/A Rain Light Rain
11:08 AM 51.8 °F - 50.0 °F 94% 29.68 in 6.0 mi SW 8.1 mph - N/A Rain Light Rain
11:13 AM 51.8 °F - 50.0 °F 94% 29.69 in 2.0 mi SW 5.8 mph - N/A Rain Light Rain
11:18 AM 50.0 °F - 50.0 °F 100% 29.69 in 1.2 mi South 5.8 mph - N/A Rain Light Rain
11:23 AM 50.0 °F - 50.0 °F 100% 29.69 in 1.8 mi South 6.9 mph - N/A Rain Rain
11:28 AM 50.0 °F - 50.0 °F 100% 29.69 in 2.5 mi South 5.8 mph - N/A Rain Light Rain
11:33 AM 50.0 °F - 50.0 °F 100% 29.69 in 4.0 mi South 5.8 mph - N/A Rain Light Rain
11:38 AM 51.8 °F - 50.0 °F 94% 29.69 in 6.0 mi South 5.8 mph - N/A Rain Light Rain
11:48 AM 51.8 °F - 50.0 °F 94% 29.69 in 4.0 mi South 8.1 mph - N/A Rain Light Rain
11:58 AM 50.9 °F - 50.7 °F 99% 29.70 in 10.0 mi South 9.2 mph - 0.10 in   Drizzle
12:08 PM 51.8 °F - 51.8 °F 100% 29.69 in 9.0 mi South 12.7 mph 19.6 mph N/A   Drizzle
12:48 PM 51.8 °F - 51.8 °F 100% 29.71 in 6.0 mi WSW 16.1 mph 17.3 mph N/A Rain Light Rain
12:58 PM 50.9 °F - 50.7 °F 99% 29.73 in 5.0 mi WSW 10.4 mph - 0.02 in Rain Light Rain
1:08 PM 50.0 °F - 50.0 °F 100% 29.71 in 9.0 mi WSW 9.2 mph - N/A Rain Light Rain
1:13 PM 51.8 °F - 50.0 °F 94% 29.71 in 10.0 mi WSW 12.7 mph - N/A   Drizzle
1:28 PM 51.8 °F - 51.8 °F 100% 29.72 in 10.0 mi SW 10.4 mph - N/A   Drizzle
1:33 PM 51.8 °F - 50.0 °F 94% 29.72 in 10.0 mi WSW 9.2 mph - N/A   Drizzle
1:38 PM 51.8 °F - 50.0 °F 94% 29.72 in 10.0 mi SW 9.2 mph - N/A   Drizzle
1:48 PM 51.8 °F - 51.8 °F 100% 29.73 in 10.0 mi SW 8.1 mph - N/A   Drizzle
1:58 PM 52.3 °F - 51.1 °F 95% 29.75 in 10.0 mi SW 6.9 mph - 0.01 in   Overcast
2:00 PM 51.8 °F - 51.8 °F 100% 29.73 in 10.0 mi SSW 5.8 mph - N/A   Drizzle
2:05 PM 51.8 °F - 51.8 °F 100% 29.73 in 10.0 mi SSW 6.9 mph - N/A   Drizzle
2:58 PM 53.6 °F - 48.4 °F 82% 29.77 in 10.0 mi SW 10.4 mph - 0.00 in   Drizzle
3:55 PM 52.3 °F - 48.7 °F 88% 29.78 in 10.0 mi SSW 5.8 mph - 0.00 in   Mostly Cloudy
4:20 PM 53.6 °F - 48.2 °F 82% 29.78 in 10.0 mi SSW 10.4 mph - N/A   Drizzle
4:29 PM 53.6 °F - 48.2 °F 82% 29.79 in 10.0 mi South 6.9 mph - N/A   Scattered Clouds
4:58 PM 52.9 °F - 45.3 °F 75% 29.81 in 10.0 mi SSW 12.7 mph 23.0 mph 0.00 in   Scattered Clouds
5:53 PM 51.8 °F - 44.6 °F 76% 29.82 in 10.0 mi South 13.8 mph 20.7 mph N/A   Mostly Cloudy
5:58 PM 51.3 °F - 45.1 °F 80% 29.83 in 10.0 mi South 15.0 mph - N/A   Mostly Cloudy
6:58 PM 49.6 °F - 46.0 °F 87% 29.87 in 10.0 mi South 6.9 mph - N/A   Mostly Cloudy
7:27 PM 48.2 °F - 46.4 °F 93% 29.86 in 10.0 mi SSE 8.1 mph - N/A   Drizzle
7:58 PM 48.7 °F - 46.2 °F 91% 29.88 in 10.0 mi SSE 10.4 mph - N/A   Overcast
8:58 PM 49.1 °F - 46.4 °F 90% 29.90 in 10.0 mi South 9.2 mph - N/A   Mostly Cloudy
9:25 PM 48.2 °F - 46.4 °F 93% 29.89 in 10.0 mi South 6.9 mph - N/A Rain Light Rain
9:58 PM 48.4 °F - 47.5 °F 97% 29.92 in 9.0 mi South 8.1 mph - 0.00 in Rain Light Rain
10:23 PM 48.2 °F - 48.2 °F 100% 29.90 in 10.0 mi SSE 9.2 mph - N/A   Drizzle
10:33 PM 48.2 °F - 48.2 °F 100% 29.90 in 10.0 mi SSE 9.2 mph - N/A   Drizzle
10:58 PM 47.3 °F - 47.1 °F 99% 29.92 in 10.0 mi SSE 8.1 mph - 0.01 in   Drizzle
11:58 PM 47.5 °F - 47.1 °F 99% 29.94 in 8.0 mi SSE 6.9 mph - 0.02 in Rain Light Rain